Regional Weather Roundup
Issued by NWS Little Rock, AR

Home | Current Version | Previous Version | Text Only | Print | Product List | Glossary On
Versions: 1 2 3 4 5 6 7 8 9 10 11 12 13 14 15 16 17 18 19 20 21 22 23 24 25 26 27 28 29 30 31 32 33 34 35 36 37 38 39 40 41 42 43 44 45 46 47 48 49 50
000
ASUS44 KLZK 270805
RWRLZK

WEATHER ROUNDUP FOR ARKANSAS
NATIONAL WEATHER SERVICE LITTLE ROCK AR
200 AM CST TUE JAN 27 2015

NOTE: "FAIR" INDICATES FEW OR NO CLOUDS BELOW 12,000 FEET WITH NO
SIGNIFICANT WEATHER AND/OR OBSTRUCTIONS TO VISIBILITY.

ARZ001-003-010-029-270900-
NORTHWEST ARKANSAS

CITY           SKY/WX    TMP DP  RH WIND       PRES   REMARKS
FAYETTEVILLE   CLEAR     33  30  88 S3        30.06R
FORT SMITH     CLEAR     44  35  70 S3        30.04R
HARRISON       CLEAR     48  35  60 W9        30.01R
BENTONVILLE    CLEAR     37  30  75 CALM      30.05R
ROGERS         CLEAR     44  34  67 W5        30.05R
SILOAM SPGS    CLEAR    N/A N/A N/A CALM      30.06R
HIGHFILL       CLEAR     40  33  76 CALM      30.04R
$$

ARZ004-005-016-270900-
NORTH CENTRAL ARKANSAS

CITY           SKY/WX    TMP DP  RH WIND       PRES   REMARKS
BATESVILLE     CLEAR     45  32  61 W3        29.99R
FLIPPIN        CLEAR     43  30  61 W3        30.00R
MTN HOME       CLEAR     43  34  70 NW3       29.99R
$$

ARZ040-041-270900-
WEST CENTRAL ARKANSAS

CITY           SKY/WX    TMP DP  RH WIND       PRES   REMARKS
MENA           CLEAR     39  34  81 W3        30.05R
MOUNT IDA      CLEAR     43  36  76 CALM      30.00S
$$

ARZ009-017-025-026-028-270900-
NORTHEAST ARKANSAS

CITY           SKY/WX    TMP DP  RH WIND       PRES   REMARKS
CORNING        FAIR      39  34  81 NW7       29.96R
JONESBORO      CLEAR     43  34  70 W8        29.96R
NEWPORT        CLEAR     42  33  70 W7        30.00R
WALNUT RIDGE   CLEAR     43  32  65 W9        29.96R
BLYTHEVILLE    CLEAR     35  31  85 W9        29.95R WCI  28
$$

ARZ022-023-033-042-044-270900-
CENTRAL ARKANSAS

CITY           SKY/WX    TMP DP  RH WIND       PRES   REMARKS
LITTLE ROCK    CLEAR     43  33  68 W5        30.02S
N LITTLE ROCK    N/A     51  39  62 W6        30.02S
JACKSONVILLE   CLEAR     42  34  73 W3        30.01R
SEARCY         CLEAR     34  32  92 SW3       30.02R
HOT SPRINGS    CLEAR     41  36  82 W6        30.02S
RUSSELLVILLE   CLEAR     34  32  92 CALM      30.02R
CLINTON        FAIR      30  28  93 CALM      30.03R
$$

ARZ036-270900-
EAST ARKANSAS

CITY           SKY/WX    TMP DP  RH WIND       PRES   REMARKS
WEST MEMPHIS   CLEAR     34  33  96 CALM      29.96R
$$

ARZ050-053-066-070-073-270900-
SOUTHWEST ARKANSAS

CITY           SKY/WX    TMP DP  RH WIND       PRES   REMARKS
ARKADELPHIA    FAIR      37  36  96 CALM      30.04S
CAMDEN         CLEAR     36  32  87 CALM      30.03F
TEXARKANA      CLEAR     43  36  76 SW5       30.04S
EL DORADO      CLEAR     40  36  86 SW3       30.04R
DE QUEEN       CLEAR     35  34  96 W3        30.03S
$$

ARZ056-057-069-270900-
SOUTHEAST ARKANSAS

CITY           SKY/WX    TMP DP  RH WIND       PRES   REMARKS
PINE BLUFF     CLEAR     46  35  65 W5        30.01S
STUTTGART      CLEAR     43  34  70 W9        30.01R
MONTICELLO     CLEAR     46  35  65 W9        30.02R

$$





USA.gov is the U.S. government's official web portal to all federal, state and local government web resources and services.